Nome, AK

3:21 PM AKST on December 16, 2017 (GMT -0900)
Nome

Weather History for PAOM - December, 2011

Change the Weather History Date:

Wednesday, December 14, 2011

  Actual Average Record
Temperature  
Mean Temperature 6 °F 10 °F  
Max Temperature 19 °F 17 °F 38 °F (1985)
Min Temperature -8 °F 3 °F -31 °F (1946)
Degree Days  
Heating Degree Days 59 55  
Month to date heating degree days 690 754  
Since 1 July heating degree days 5160 4847  
Cooling Degree Days 0 0  
Month to date cooling degree days 0 0  
Year to date cooling degree days 0 3  
Moisture  
Dew Point 1 °F    
Average Humidity 0    
Maximum Humidity 0    
Minimum Humidity 0    
Precipitation  
Precipitation 0.00 in 0.03 in 0.65 in (1914)
Month to date precipitation 1.96 0.47  
Year to date precipitation 18.24 16.20  
Snow  
Snow 0.00 in 0.50 in 6.00 in (1914)
Month to date snowfall 24.2 6.1  
Since 1 July snowfall 40.7 23.4  
Snow Depth 24.00 in    
Sea Level Pressure  
Sea Level Pressure 29.80 in    
Wind  
Wind Speed 4 mph (North)    
Max Wind Speed 13 mph    
Max Gust Speed 14 mph    
Visibility 9 miles    
Events      
T = Trace of Precipitation, MM = Missing Value Source: NWS Daily Summary

Daily Weather History Graph

Daily Weather History Graph

Search for Another Location

Airport or City:

Trip Planner

Search our weather history database for the weather conditions in past years. The results will help you decide how hot, cold, wet, or windy it might be!

Date:

Astronomy

Dec. 14, 2011 Rise Set
Actual Time 11:55 AM AKST 3:57 PM AKST
Civil Twilight 10:34 AM AKST 5:18 PM AKST
Nautical Twilight 9:24 AM AKST 6:28 PM AKST
Astronomical Twilight 8:23 AM AKST 7:29 PM AKST
Moon 10:11 PM AKST (12/14) 1:15 PM AKST (12/14)
Length of Visible Light 6h 44m
Length of Day
4h 02m
Waning Gibbous, 82% of the Moon is Illuminated
Dec 14
Waning Gibbous
Dec 17
Last Quarter
Dec 24
New
Dec 31
First Quarter
Jan 8
Full

Hourly Weather History & Observations

Time (AKST) Temp. Windchill Dew Point Humidity Pressure Visibility Wind Dir Wind Speed Gust Speed Precip Events Conditions
12:53 AM 15.1 °F 7.7 °F 9.0 °F 77% 29.78 in 10.0 mi North 4.6 mph - N/A   Mostly Cloudy
1:53 AM 10.9 °F -2.6 °F 6.1 °F 81% 29.79 in 10.0 mi North 10.4 mph - N/A   Scattered Clouds
2:53 AM 9.0 °F -2.2 °F 3.9 °F 80% 29.80 in 10.0 mi North 6.9 mph - N/A   Partly Cloudy
3:53 AM 6.1 °F - 3.0 °F 87% 29.81 in 10.0 mi Calm Calm - N/A   Partly Cloudy
4:53 AM 3.9 °F - 1.0 °F 88% 29.81 in 10.0 mi Calm Calm - N/A   Partly Cloudy
5:19 AM 1.4 °F -9.9 °F -0.4 °F 92% 29.81 in 10.0 mi North 5.8 mph - N/A   Mostly Cloudy
5:53 AM 9.0 °F -5.9 °F 3.9 °F 80% 29.81 in 10.0 mi North 11.5 mph - N/A   Mostly Cloudy
6:53 AM 12.9 °F 5.2 °F 8.1 °F 81% 29.81 in 10.0 mi North 4.6 mph - N/A   Overcast
7:53 AM 12.0 °F 1.5 °F 6.1 °F 77% 29.81 in 10.0 mi NE 6.9 mph - N/A   Overcast
8:53 AM 12.0 °F 0.5 °F 6.1 °F 77% 29.81 in 10.0 mi North 8.1 mph - N/A   Overcast
9:53 AM 8.1 °F -6.2 °F 3.9 °F 83% 29.82 in 10.0 mi NNW 10.4 mph - N/A   Overcast
10:36 AM 8.6 °F -1.3 °F 5.0 °F 85% 29.82 in 1.8 mi North 5.8 mph - 0.02 in   Overcast
10:39 AM 8.6 °F -1.3 °F 6.8 °F 92% 29.83 in 10.0 mi North 5.8 mph - 0.24 in   Mostly Cloudy
10:53 AM 8.1 °F -3.2 °F 3.9 °F 83% 29.83 in 10.0 mi North 6.9 mph - 0.25 in   Mostly Cloudy
11:53 AM 5.0 °F - 1.9 °F 87% 29.84 in 7.0 mi Calm Calm - N/A   Mostly Cloudy
12:53 PM 3.9 °F - 1.0 °F 88% 29.85 in 10.0 mi Calm Calm - N/A   Scattered Clouds
1:00 PM 3.2 °F - 1.4 °F 92% 29.84 in 10.0 mi Calm Calm - N/A   Mostly Cloudy
1:02 PM 3.2 °F - 1.4 °F 92% 29.84 in 10.0 mi Calm Calm - N/A   Scattered Clouds
1:42 PM 3.2 °F - 1.4 °F 92% 29.84 in 1.8 mi Calm Calm - N/A   Scattered Clouds
1:43 PM 3.2 °F - 1.4 °F 92% 29.84 in 10.0 mi Calm Calm - N/A   Scattered Clouds
1:53 PM 3.9 °F - 1.0 °F 88% 29.85 in 10.0 mi Calm Calm - N/A   Scattered Clouds
2:14 PM 3.2 °F - 1.4 °F 92% 29.84 in 9.0 mi Calm Calm - N/A   Scattered Clouds
2:53 PM 1.9 °F - 1.0 °F 96% 29.83 in 9.0 mi Calm Calm - N/A   Scattered Clouds
3:53 PM 1.0 °F -6.7 °F -0.9 °F 91% 29.81 in 9.0 mi North 3.5 mph - N/A   Scattered Clouds
4:53 PM -0.9 °F - -2.9 °F 91% 29.81 in 7.0 mi Calm Calm - N/A   Scattered Clouds
5:47 PM -5.8 °F -16.7 °F -9.4 °F 84% 29.79 in 1.8 mi NNE 4.6 mph - N/A   Clear
5:53 PM -2.0 °F -10.1 °F -6.0 °F 83% 29.79 in 9.0 mi NE 3.5 mph - N/A   Scattered Clouds
6:01 PM -4.0 °F - -4.0 °F 100% 29.79 in 9.0 mi Calm Calm - N/A   Scattered Clouds
6:53 PM -2.9 °F -11.2 °F -4.0 °F 95% 29.77 in 9.0 mi NNE 3.5 mph - N/A   Scattered Clouds
7:53 PM -2.9 °F - -5.1 °F 90% 29.75 in 9.0 mi Calm Calm - N/A   Scattered Clouds
8:53 PM 3.9 °F - -0.9 °F 80% 29.73 in 10.0 mi Calm Calm - N/A   Scattered Clouds
9:53 PM 7.0 °F 0.1 °F 1.0 °F 77% 29.72 in 9.0 mi NNW 3.5 mph - N/A   Scattered Clouds
10:53 PM 8.1 °F -2.0 °F 1.9 °F 76% 29.70 in 10.0 mi NNE 5.8 mph - N/A   Scattered Clouds
11:53 PM 9.0 °F - 1.9 °F 73% 29.69 in 10.0 mi Calm Calm - N/A   Scattered Clouds